Fairbanks, AK

9:46 PM AKDT on October 22, 2019 (GMT -0800)
Fairbanks International

Weather History for PAFA - May, 2019

Change the Weather History Date:

Wednesday, May 1, 2019

  Actual Average Record
Temperature  
Mean Temperature 53 °F 43 °F  
Max Temperature 70 °F 54 °F 76 °F (2009)
Min Temperature 35 °F 31 °F 4 °F (1937)
Degree Days  
Heating Degree Days 12 22  
Month to date heating degree days 12 22  
Since 1 July heating degree days 11274 13046  
Cooling Degree Days 0 0  
Month to date cooling degree days 0 0  
Year to date cooling degree days 0 0  
Growing Degree Days 2 (Base 50)    
Moisture  
Dew Point 28 °F    
Average Humidity 36    
Maximum Humidity 70    
Minimum Humidity 15    
Precipitation  
Precipitation 0.00 in 0.02 in 0.15 in (2018)
Month to date precipitation 0.00 0.02  
Year to date precipitation 2.48 1.58  
Snow  
Snow 0.00 in 0.10 in 1.00 in (1945)
Month to date snowfall 0.0 0.1  
Since 1 July snowfall 57.5 64.2  
Snow Depth 0.00 in    
Sea Level Pressure  
Sea Level Pressure 30.06 in    
Wind  
Wind Speed 5 mph (NNE)    
Max Wind Speed 12 mph    
Max Gust Speed -    
Visibility 10 miles    
Events      
T = Trace of Precipitation, MM = Missing Value Source: NWS Daily Summary

Daily Weather History Graph

Daily Weather History Graph

Search for Another Location

Airport or City:

Astronomy

May. 01, 2019 Rise Set
Actual Time 5:18 AM AKDT 10:20 PM AKDT
Civil Twilight 4:05 AM AKDT 11:35 PM AKDT
Nautical Twilight 2:21 AM AKDT 1:16 AM AKDT
Astronomical Twilight Sun does not rise Sun does not rise
Moon 6:00 AM AKDT (5/1) 5:36 PM AKDT (5/1)
Length of Visible Light 19h 30m
Length of Day
17h 02m
Waning Crescent, 10% of the Moon is Illuminated
May 1
Waning Crescent
May 4
New
May 11
First Quarter
May 18
Full
May 26
Last Quarter

Hourly Weather History & Observations

Time (AKDT) Temp. Windchill Dew Point Humidity Pressure Visibility Wind Dir Wind Speed Gust Speed Precip Events Conditions
12:53 AM 53.1 °F - 25.0 °F 34% 30.21 in 10.0 mi North 8.1 mph - N/A   Clear
1:53 AM 46.9 °F - 25.0 °F 42% 30.20 in 10.0 mi North 6.9 mph - N/A   Clear
2:53 AM 46.9 °F - 25.0 °F 42% 30.19 in 10.0 mi ENE 5.8 mph - N/A   Clear
3:53 AM 42.1 °F 38.4 °F 26.1 °F 53% 30.18 in 10.0 mi ENE 5.8 mph - N/A   Clear
4:53 AM 41.0 °F 39.0 °F 26.1 °F 55% 30.17 in 10.0 mi East 3.5 mph - N/A   Partly Cloudy
5:53 AM 37.0 °F - 28.0 °F 70% 30.17 in 10.0 mi Calm Calm - N/A   Partly Cloudy
6:53 AM 37.9 °F - 28.0 °F 68% 30.17 in 10.0 mi Calm Calm - N/A   Clear
7:53 AM 46.0 °F - 27.0 °F 47% 30.16 in 10.0 mi Calm Calm - N/A   Clear
8:53 AM 48.0 °F - 28.0 °F 46% 30.15 in 10.0 mi Calm Calm - N/A   Clear
9:53 AM 52.0 °F - 28.9 °F 41% 30.14 in 10.0 mi South 3.5 mph - N/A   Clear
10:53 AM 55.9 °F - 28.9 °F 36% 30.12 in 10.0 mi Calm Calm - N/A   Clear
11:53 AM 59.0 °F - 30.0 °F 33% 30.10 in 10.0 mi SSE 3.5 mph - N/A   Clear
12:53 PM 63.0 °F - 30.9 °F 30% 30.07 in 10.0 mi Variable 3.5 mph - N/A   Clear
1:53 PM 64.0 °F - 30.9 °F 29% 30.05 in 10.0 mi Variable 4.6 mph - N/A   Clear
2:53 PM 66.9 °F - 30.9 °F 26% 30.01 in 10.0 mi Calm Calm - N/A   Partly Cloudy
3:53 PM 66.9 °F - 30.9 °F 26% 29.99 in 10.0 mi SSW 8.1 mph - N/A   Partly Cloudy
4:53 PM 68.0 °F - 28.9 °F 23% 29.96 in 10.0 mi WSW 6.9 mph - N/A   Partly Cloudy
5:53 PM 69.1 °F - 28.9 °F 22% 29.95 in 10.0 mi Variable 5.8 mph - N/A   Partly Cloudy
6:53 PM 69.1 °F - 28.0 °F 22% 29.94 in 10.0 mi NNW 8.1 mph - N/A   Partly Cloudy
7:53 PM 66.0 °F - 28.0 °F 24% 29.93 in 10.0 mi North 10.4 mph - N/A   Partly Cloudy
8:53 PM 62.1 °F - 26.1 °F 25% 29.93 in 10.0 mi North 11.5 mph - N/A   Partly Cloudy
9:53 PM 57.9 °F - 26.1 °F 30% 29.92 in 10.0 mi NNW 6.9 mph - N/A   Partly Cloudy
10:53 PM 55.0 °F - 26.1 °F 33% 29.92 in 10.0 mi North 6.9 mph - N/A   Partly Cloudy
11:53 PM 51.1 °F - 26.1 °F 38% 29.93 in 10.0 mi North 4.6 mph - N/A   Partly Cloudy